Volver al catálogo

STARLINK-6306

ActivoComunicacionesVLEO
NORAD 57242·PAYLOAD·🇺🇸 United States

Lanzado Jul 7, 2023 desde Vandenberg Space Force Base

Loading…

Próximos Pases (próximas 24 horas)

TLE

ActualizadoSource: CelesTrak SupGP

Época: Sep 14, 2026, 21:11 UTC

1 57242C 23094AA  26257.88312500  .00038565  00000+0  13964-2 0  2575
2 57242  43.0042  31.6337 0001792 276.1379  35.3491 15.27568717    17

Sigue STARLINK-6306 en tiempo real con AllMySat

Download on the App Store